Find Starlink 35107

NORAD ID: 65464 Int'l Des: 2025-195 Owner: SPXS Country: US Constellation: starlink operational
LEOCIRCULAR

現在のビュー

3D地球を読み込み中...

About Starlink 35107

Starlink 35107 (NORAD 65464) is a starlink constellation satellite (v2 mini) launched Sep 3, 2025 by SPXS of US. It operates in LEO, CIRCULAR orbit with a mass of 575.00 kg.

次回通過

Passes for default location (London). Set your location on the main map for personalized predictions.

高度履歴

Loading altitude history...

軌道要素

1 65464U 25195G 26262.89107550 .00024354 00000-0 79349-3 0 9993
2 65464 53.1588 74.2362 0000853 91.7081 268.4018 15.31720259 59753
Epoch: Sep 19, 2026 • Age: 29 hours

現在のステータス

高度 476.0 km
遠地点 / 近地点 N/A
速度 7.63 km/s
衛星直下点 51.17°N, 150.58°E
打ち上げ日 Sep 3, 2025
運用期間 1 year
タイプ internet

技術仕様

分類 Payload
質量 575.00 kg
乾燥質量 530.00 kg
長さ 0.30 m
スパン 29.00 m
形状 ? Box + pan
製造者 SPXS
バスタイプ Starlink V2MO
フェーズステータス In Orbit
所有者/国 SPXS/US

Most Searched